This is the latest recevied weather packets stored in our database for station/object SR8WXB-1. If no packets are shown the sender has not sent any weather packets the latest 1 day(s).
| Time | Temp. | Humidity | Pressure | Rain* | Wind** | Luminosity | Snow |
|---|---|---|---|---|---|---|---|
| 1778060054 | 19.44° C | 100% | 939 hPa | - | - | - | - |
| 1778059814 | 19.44° C | 100% | 938.9 hPa | - | - | - | - |
| 1778059328 | 18.89° C | 100% | 938.9 hPa | - | - | - | - |
| 1778059088 | 19.44° C | 100% | 938.9 hPa | - | - | - | - |
| 1778058848 | 19.44° C | 100% | 938.8 hPa | - | - | - | - |
| 1778058608 | 19.44° C | 100% | 938.7 hPa | - | - | - | - |
| 1778058368 | 19.44° C | 100% | 938.8 hPa | - | - | - | - |
| 1778058125 | 19.44° C | 100% | 938.8 hPa | - | - | - | - |
| 1778057885 | 18.89° C | 100% | 938.8 hPa | - | - | - | - |
| 1778055963 | 17.78° C | 100% | 938.6 hPa | - | - | - | - |
| 1778055720 | 17.78° C | 100% | 938.7 hPa | - | - | - | - |
| 1778055480 | 18.33° C | 100% | 938.5 hPa | - | - | - | - |
| 1778055240 | 18.33° C | 100% | 938.6 hPa | - | - | - | - |
| 1778055000 | 17.78° C | 100% | 938.5 hPa | - | - | - | - |
| 1778054276 | 17.78° C | 100% | 938.4 hPa | - | - | - | - |
| 1778053548 | 17.78° C | 100% | 938.3 hPa | - | - | - | - |
| 1778053305 | 17.78° C | 100% | 938.3 hPa | - | - | - | - |
| 1778053065 | 18.33° C | 100% | 938.3 hPa | - | - | - | - |
| 1778052585 | 18.33° C | 100% | 938.3 hPa | - | - | - | - |
| 1778052345 | 17.78° C | 100% | 938.3 hPa | - | - | - | - |
| 1778052098 | 17.78° C | 100% | 938.3 hPa | - | - | - | - |
| 1778051858 | 18.33° C | 100% | 938.3 hPa | - | - | - | - |
| 1778051618 | 17.78° C | 100% | 938.3 hPa | - | - | - | - |
| 1778051378 | 17.78° C | 100% | 938.3 hPa | - | - | - | - |
| 1778050655 | 17.78° C | 100% | 938.2 hPa | - | - | - | - |
* Rain since midnight (hover to see other rain measurements)
** Current wind speed in m/s (hover to see current wind gust speed)